Regional Weather Roundup
Issued by NWS

Home | Current Version | Previous Version | Text Only | Print | Product List | Glossary Off
Versions: 1 2 3 4 5 6 7 8 9 10 11 12 13 14 15 16 17 18 19 20 21 22 23 24 25 26 27 28 29 30 31 32 33 34 35 36 37 38 39 40 41 42 43 44 45 46 47 48 49 50

000
ASUS43 KLOT 201310
RWRIL

ILLINOIS REGIONAL WEATHER ROUNDUP
NATIONAL WEATHER SERVICE CHICAGO/ROMEOVILLE IL
700 AM CST SAT DEC 20 2014

NOTE: "FAIR" INDICATES FEW OR NO CLOUDS BELOW 12,000 FEET WITH NO
SIGNIFICANT WEATHER AND/OR OBSTRUCTIONS TO VISIBILITY.

* THESE STATIONS ARE NOT UNDER NWS QUALITY CONTROL. THEY ALSO MAY NOT
  REPORT WEATHER SUCH AS PRECIPITATION OR FOG.

ILZ001-002-007-009-015-016-024-201400-
NORTHWEST ILLINOIS

CITY           SKY/WX    TMP DP  RH WIND       PRES   REMARKS
MOLINE         CLOUDY    29  24  82 E5        30.25S WCI  24
STERLING*      CLOUDY    28  25  86 E6        30.26S WCI  22
SAVANNA*       CLOUDY    29  26  87 E3        30.26S
$$

ILZ003-004-008-010-011-017-018-201400-
NORTH CENTRAL ILLINOIS

CITY           SKY/WX    TMP DP  RH WIND       PRES   REMARKS
ROCKFORD       FLURRIES  27  22  81 CALM      30.29R
FREEPORT*      CLOUDY    26  24  92 E6        30.27F FOG     WCI  20
ROCHELLE*      CLOUDY    27  25  93 CALM      30.27S FOG
DE KALB*       CLOUDY    26  24  91 CALM      30.27R FOG
PERU*          CLOUDY    29  27  90 CALM      30.29R
$$

ILZ005-006-012>014-019>023-201400-
NORTHEAST ILLINOIS

CITY           SKY/WX    TMP DP  RH WIND       PRES   REMARKS
CHICAGO-OHARE  CLOUDY    29  23  78 CALM      30.27S
CHICAGO-MIDWAY CLOUDY    32  25  75 S3        30.28S
AURORA         CLOUDY    28  23  81 CALM      30.27S HAZE
LANSING*       CLOUDY    29  27  90 CALM      30.28F FOG
JOLIET*        CLOUDY    28  23  82 CALM      30.29R
WAUKEGAN       CLOUDY    27  21  78 CALM      30.27R
DUPAGE AIRPORT CLOUDY    28  24  85 CALM      30.26S
KANKAKEE*      CLOUDY    29  27  92 CALM      30.29S
WHEELING       CLOUDY    28  23  81 CALM      30.29S
MORRIS*        CLOUDY    27  26  97 CALM      30.28R FOG
ROMEOVILLE*    CLOUDY    28  26  91 CALM      30.28R
NORTHERLY ISL    N/A     31  24  76 S5          N/A  WCI  26
$$

LMZ740>746-201400-
SOUTHERN LAKE MICHIGAN

STATION/POSITION SKY/WX   TEMP    WIND        PRES    VSBY  WAVE
                          AIR SEA DIR/SP/G                  HT/PER
                          (F)     (DEG/KT/KT) (MB)    (MI)  (FT/S)
WAUKEGAN HARBOR            28        CALM       N/A
HARRISON CRIB              31     180/  8/  9   N/A
BURNHAM HARBOR             31     190/  3/  6   N/A
CALUMET HARBOR             31     170/  1/  2 1024.1S
$$

ILZ025>027-034>036-040-047-049-050-058-095>099-201400-
WEST-CENTRAL ILLINOIS

CITY           SKY/WX    TMP DP  RH WIND       PRES   REMARKS
QUINCY         CLOUDY    32  28  85 SE6       30.23S WCI  26
GALESBURG*     CLOUDY    29  26  87 E3        30.24S
MACOMB*        CLOUDY    30  28  92 SE3       30.27R FOG
JACKSONVILLE*  CLOUDY    33  29  85 SE5       30.25S WCI  29
PITTSFIELD*    CLOUDY    32  29  89 SE5       30.25S WCI  28
$$

ILZ028>032-037-038-041>044-048-051>054-059>061-201400-
CENTRAL ILLINOIS

CITY           SKY/WX    TMP DP  RH WIND       PRES   REMARKS
PONTIAC        CLOUDY    28  26  96 CALM      30.29S FOG
BLOOMINGTON    MOCLDY    23  23 100 CALM      30.27S FOG
DECATUR        CLOUDY    30  27  88 SE3       30.28R
PEORIA         CLOUDY    30  24  78 E6        30.27S WCI  24
LACON*         CLOUDY    27  24  87 CALM      30.27S
LINCOLN*       CLOUDY    32  29  90 CALM      30.28S
SPRINGFIELD    CLOUDY    32  27  81 SE5       30.27R WCI  27
TAYLORVILLE    CLOUDY    30  28  93 CALM      30.27R
$$

ILZ033-039-045-046-055>057-062-063-201400-
EAST-CENTRAL ILLINOIS

CITY           SKY/WX    TMP DP  RH WIND       PRES   REMARKS
CHAMPAIGN      MOCLDY    25  23  92 E5        30.28R FOG     WCI  19
DANVILLE*      CLOUDY    29  28  95 CALM      30.27R FOG
RANTOUL*       PTCLDY    26  25  96 CALM      30.28S FOG
MATTOON        CLOUDY    29  25  85 SE6       30.27S WCI  23
PARIS*         CLOUDY    30  29  94 CALM      30.30S
$$

ILZ079-100>102-201400-
SOUTHWEST ILLINOIS

CITY           SKY/WX    TMP DP  RH WIND       PRES   REMARKS
ALTON          CLOUDY    32  28  86 E6        30.26S WCI  26
BELLEVILLE     CLOUDY    33  31  92 SE2       30.27R
CAHOKIA*       CLOUDY    35  30  82 SE3       30.27R
SPARTA*        CLOUDY    33  29  88 SE3       30.28R
$$

ILZ064>066-069>071-074>076-080>082-084>086-088>090-092>094-201400-
SOUTH-CENTRAL ILLINOIS

CITY           SKY/WX    TMP DP  RH WIND       PRES   REMARKS
CARBONDALE     CLOUDY    33  28  81 CALM      30.29R
CAIRO*         CLOUDY    37  31  81 NE3       30.28R
EFFINGHAM*     CLOUDY    31  27  83 CALM      30.30R
MARION         CLOUDY    34  30  86 SE6       30.29R WCI  29
MT. VERNON     CLOUDY    32  27  80 CALM      30.29R
CENTRALIA*     CLOUDY    32  28  83 CALM      30.27S
SALEM*         CLOUDY    34  29  82 CALM      30.27F
METROPOLIS*    CLOUDY    34  29  83 CALM      30.28R
$$

ILZ067-068-072-073-078-083-087-091-201400-
SOUTHEAST ILLINOIS

CITY           SKY/WX    TMP DP  RH WIND       PRES   REMARKS
LAWRENCEVILLE  CLOUDY    30  28  92 E5        30.31R FOG     WCI  25
FLORA*         CLEAR     31  28  89 E3        30.29S
FAIRFIELD*     CLOUDY    32  28  86 E3        30.28S
HARRISBURG*    CLOUDY    32  30  90 E3        30.30S
ROBINSON*      CLOUDY    31  29  93 CALM      30.32R
CARMI*         CLOUDY    34  30  86 E3        30.30R
$$

ABBREVIATIONS USED IN REMARKS
   TC - TEMPERATURE IN CELSIUS
  WCI - WIND CHILL INDEX
   HX - HEAT INDEX
  VSB - VISIBILITY
$$



USA.gov is the U.S. government's official web portal to all federal, state and local government web resources and services.